| time (UTC) | temp F | wind direction | speed knots | gust knots | rain 1hr in | rain 24hr in | rain mn in | humidity % | barometer mb |
| 20260504160107 | 67 | 277 | 2.6 | 8.7 | 0.00 | 0.00 | 0.00 | 30 | 1011.7 |
| 20260504151039 | 66 | 221 | 6.1 | 7.0 | 0.00 | 0.00 | 0.00 | 31 | 1012.3 |
| 20260504150536 | 66 | 260 | 3.5 | 7.8 | 0.00 | 0.00 | 0.00 | 31 | 1012.6 |
| 20260504141002 | 64 | 73 | 0.9 | 2.6 | 0.00 | 0.00 | 0.00 | 42 | 1012.5 |
| 20260504140459 | 63 | 220 | 4.3 | 4.3 | 0.00 | 0.00 | 0.00 | 41 | 1012.6 |
| 20260504130423 | 58 | 234 | 0.0 | 2.6 | 0.00 | 0.00 | 0.00 | 48 | 1013.5 |
| 20260504110310 | 38 | 59 | 1.7 | 2.6 | 0.00 | 0.00 | 0.00 | 88 | 1013.8 |
| 20260504100228 | 35 | 19 | 1.7 | 1.7 | 0.00 | 0.00 | 0.00 | 88 | 1013.7 |
| 20260504081621 | 36 | 26 | 1.7 | 2.6 | 0.00 | 0.00 | 0.00 | 86 | 1013.5 |
| 20260504081117 | 36 | 30 | 1.7 | 1.7 | 0.00 | 0.00 | 0.00 | 86 | 1013.6 |
| 20260504080614 | 36 | 10 | 1.7 | 2.6 | 0.00 | 0.00 | 0.00 | 85 | 1013.7 |
| 20260504080111 | 37 | 55 | 1.7 | 2.6 | 0.00 | 0.00 | 0.00 | 84 | 1013.6 |
| 20260504050427 | 42 | 49 | 1.7 | 2.6 | 0.00 | 0.00 | 0.00 | 69 | 1013.4 |
| 20260504045924 | 42 | 51 | 1.7 | 1.7 | 0.00 | 0.00 | 0.00 | 68 | 1013.5 |
| 20260504045420 | 42 | 58 | 1.7 | 2.6 | 0.00 | 0.00 | 0.00 | 68 | 1013.4 |
| 20260504044916 | 42 | 46 | 1.7 | 2.6 | 0.00 | 0.00 | 0.00 | 67 | 1013.5 |
| 20260504044414 | 42 | 61 | 1.7 | 2.6 | 0.00 | 0.00 | 0.00 | 68 | 1013.4 |
| 20260504043911 | 42 | 56 | 1.7 | 2.6 | 0.00 | 0.00 | 0.00 | 68 | 1013.5 |
| 20260504043408 | 42 | 62 | 1.7 | 1.7 | 0.00 | 0.00 | 0.00 | 68 | 1013.2 |
| 20260504042905 | 42 | 57 | 1.7 | 2.6 | 0.00 | 0.00 | 0.00 | 69 | 1013.3 |
| 20260504042401 | 43 | 47 | 1.7 | 2.6 | 0.00 | 0.00 | 0.00 | 67 | 1013.3 |
| 20260504041858 | 43 | 40 | 1.7 | 1.7 | 0.00 | 0.00 | 0.00 | 67 | 1013.3 |
| 20260504041354 | 43 | 40 | 1.7 | 2.6 | 0.00 | 0.00 | 0.00 | 68 | 1013.2 |
| 20260504040850 | 43 | 42 | 1.7 | 2.6 | 0.00 | 0.00 | 0.00 | 67 | 1013.3 |
| 20260504040348 | 43 | 43 | 1.7 | 1.7 | 0.00 | 0.00 | 0.00 | 67 | 1013.2 |
| 20260504035843 | 43 | 36 | 1.7 | 2.6 | 0.00 | 0.00 | 0.00 | 66 | 1013.0 |
| 20260504035342 | 44 | 43 | 2.6 | 2.6 | 0.00 | 0.00 | 0.00 | 66 | 1013.0 |
| 20260504034838 | 44 | 43 | 1.7 | 1.7 | 0.00 | 0.00 | 0.00 | 65 | 1013.0 |
| 20260504034336 | 44 | 46 | 1.7 | 2.6 | 0.00 | 0.00 | 0.00 | 64 | 1013.1 |
| 20260504033832 | 44 | 57 | 1.7 | 2.6 | 0.00 | 0.00 | 0.00 | 63 | 1012.8 |
| 20260504033331 | 45 | 51 | 2.6 | 2.6 | 0.00 | 0.00 | 0.00 | 62 | 1012.7 |
| 20260504032827 | 45 | 53 | 1.7 | 2.6 | 0.00 | 0.00 | 0.00 | 61 | 1012.6 |
| 20260504032324 | 45 | 62 | 1.7 | 2.6 | 0.00 | 0.00 | 0.00 | 60 | 1012.6 |
| 20260504031821 | 45 | 57 | 1.7 | 2.6 | 0.00 | 0.00 | 0.00 | 59 | 1012.6 |
| 20260504031318 | 46 | 65 | 1.7 | 2.6 | 0.00 | 0.00 | 0.00 | 59 | 1012.7 |
| 20260504030814 | 46 | 47 | 1.7 | 2.6 | 0.00 | 0.00 | 0.00 | 55 | 1012.5 |
| 20260504030312 | 46 | 60 | 1.7 | 2.6 | 0.00 | 0.00 | 0.00 | 52 | 1012.7 |
| 20260504025808 | 46 | 57 | 1.7 | 1.7 | 0.00 | 0.00 | 0.00 | 53 | 1012.5 |
| 20260504025305 | 46 | 41 | 1.7 | 1.7 | 0.00 | 0.00 | 0.00 | 53 | 1012.6 |
| 20260504024801 | 47 | 60 | 1.7 | 2.6 | 0.00 | 0.00 | 0.00 | 53 | 1012.6 |
| 20260504024258 | 48 | 59 | 1.7 | 1.7 | 0.00 | 0.00 | 0.00 | 50 | 1012.6 |
| 20260504023755 | 48 | 62 | 1.7 | 2.6 | 0.00 | 0.00 | 0.00 | 50 | 1012.6 |
| 20260504023251 | 48 | 50 | 2.6 | 2.6 | 0.00 | 0.00 | 0.00 | 50 | 1012.6 |
| 20260504022747 | 48 | 44 | 0.0 | 2.6 | 0.00 | 0.00 | 0.00 | 50 | 1012.7 |
| 20260504022244 | 49 | 46 | 1.7 | 2.6 | 0.00 | 0.00 | 0.00 | 48 | 1012.5 |
| 20260504021741 | 50 | 58 | 1.7 | 1.7 | 0.00 | 0.00 | 0.00 | 48 | 1012.8 |
| 20260504021238 | 51 | 57 | 1.7 | 1.7 | 0.00 | 0.00 | 0.00 | 48 | 1012.5 |
| 20260504020735 | 52 | 44 | 0.0 | 1.7 | 0.00 | 0.00 | 0.00 | 45 | 1012.6 |
| 20260504020231 | 52 | 350 | 0.0 | 0.9 | 0.00 | 0.00 | 0.00 | 42 | 1012.7 |
| 20260504015728 | 52 | 331 | 0.0 | 1.7 | 0.00 | 0.00 | 0.00 | 41 | 1012.5 |
| 20260504015224 | 53 | 352 | 0.0 | 0.9 | 0.00 | 0.00 | 0.00 | 42 | 1012.4 |
| 20260504014720 | 53 | 358 | 0.9 | 0.9 | 0.00 | 0.00 | 0.00 | 40 | 1012.6 |
| 20260504014217 | 53 | 337 | 0.0 | 0.9 | 0.00 | 0.00 | 0.00 | 40 | 1012.3 |
| 20260504013715 | 53 | 299 | 0.0 | 0.9 | 0.00 | 0.00 | 0.00 | 39 | 1012.2 |
| 20260504013212 | 53 | 324 | 0.9 | 1.7 | 0.00 | 0.00 | 0.00 | 39 | 1012.6 |
| 20260504012708 | 53 | 334 | 0.9 | 1.7 | 0.00 | 0.00 | 0.00 | 39 | 1012.5 |
| 20260504012206 | 54 | 339 | 0.0 | 1.7 | 0.00 | 0.00 | 0.00 | 39 | 1012.5 |
| 20260504011703 | 54 | 326 | 0.9 | 1.7 | 0.00 | 0.00 | 0.00 | 38 | 1012.4 |
| 20260504011159 | 54 | 342 | 0.0 | 1.7 | 0.00 | 0.00 | 0.00 | 38 | 1012.2 |
| 20260504010655 | 54 | 326 | 1.7 | 1.7 | 0.00 | 0.00 | 0.00 | 38 | 1012.2 |
| 20260504010151 | 54 | 359 | 0.9 | 1.7 | 0.00 | 0.00 | 0.00 | 38 | 1012.3 |
| 20260504005648 | 54 | 50 | 0.0 | 1.7 | 0.00 | 0.00 | 0.00 | 38 | 1012.2 |
| 20260504005145 | 54 | 331 | 0.9 | 1.7 | 0.00 | 0.00 | 0.00 | 38 | 1012.1 |
| 20260504004643 | 54 | 12 | 0.9 | 1.7 | 0.00 | 0.00 | 0.00 | 37 | 1012.0 |
| 20260504004140 | 54 | 334 | 1.7 | 1.7 | 0.00 | 0.00 | 0.00 | 37 | 1012.0 |
| 20260504003636 | 55 | 323 | 0.9 | 1.7 | 0.00 | 0.00 | 0.00 | 37 | 1011.9 |
| 20260504003133 | 55 | 337 | 0.9 | 1.7 | 0.00 | 0.00 | 0.00 | 37 | 1011.7 |
| 20260504002630 | 55 | 351 | 0.9 | 1.7 | 0.00 | 0.00 | 0.00 | 36 | 1011.7 |
| 20260504002127 | 55 | 315 | 0.0 | 1.7 | 0.00 | 0.00 | 0.00 | 36 | 1011.7 |
| 20260504001625 | 56 | 324 | 0.9 | 1.7 | 0.00 | 0.00 | 0.00 | 35 | 1011.6 |
| 20260504001121 | 56 | 355 | 0.0 | 1.7 | 0.00 | 0.00 | 0.00 | 36 | 1011.6 |
| 20260504000619 | 56 | 4 | 1.7 | 1.7 | 0.00 | 0.00 | 0.00 | 35 | 1011.5 |
| 20260504000116 | 56 | 262 | 1.7 | 1.7 | 0.00 | 0.00 | 0.00 | 35 | 1011.5 |
| 20260503235614 | 57 | 32 | 0.9 | 1.7 | 0.00 | 0.00 | 0.00 | 34 | 1011.6 |
| 20260503235110 | 57 | 309 | 0.0 | 1.7 | 0.00 | 0.00 | 0.00 | 34 | 1011.2 |
| 20260503234608 | 57 | 293 | 0.0 | 2.6 | 0.00 | 0.00 | 0.00 | 33 | 1011.3 |
| 20260503234106 | 58 | 294 | 1.7 | 2.6 | 0.00 | 0.00 | 0.00 | 32 | 1011.1 |
| 20260503233603 | 58 | 316 | 1.7 | 2.6 | 0.00 | 0.00 | 0.00 | 33 | 1011.3 |
| 20260503233058 | 58 | 280 | 2.6 | 3.5 | 0.00 | 0.00 | 0.00 | 32 | 1011.2 |
| 20260503232555 | 59 | 276 | 0.9 | 3.5 | 0.00 | 0.00 | 0.00 | 31 | 1011.1 |
| 20260503232053 | 59 | 330 | 1.7 | 1.7 | 0.00 | 0.00 | 0.00 | 32 | 1011.1 |
| 20260503231551 | 59 | 298 | 1.7 | 3.5 | 0.00 | 0.00 | 0.00 | 30 | 1011.0 |
| 20260503231047 | 59 | 288 | 1.7 | 2.6 | 0.00 | 0.00 | 0.00 | 31 | 1011.1 |
| 20260503230544 | 59 | 340 | 1.7 | 3.5 | 0.00 | 0.00 | 0.00 | 31 | 1011.2 |
| 20260503230041 | 60 | 286 | 1.7 | 3.5 | 0.00 | 0.00 | 0.00 | 30 | 1011.0 |
| 20260503225538 | 60 | 308 | 2.6 | 2.6 | 0.00 | 0.00 | 0.00 | 30 | 1011.0 |
| 20260503225033 | 60 | 289 | 2.6 | 2.6 | 0.00 | 0.00 | 0.00 | 29 | 1011.0 |
| 20260503224531 | 60 | 289 | 2.6 | 3.5 | 0.00 | 0.00 | 0.00 | 30 | 1011.2 |
| 20260503224028 | 60 | 247 | 1.7 | 9.6 | 0.00 | 0.00 | 0.00 | 29 | 1011.0 |
| 20260503223526 | 60 | 238 | 1.7 | 4.3 | 0.00 | 0.00 | 0.00 | 28 | 1010.9 |
| 20260503223021 | 60 | 284 | 1.7 | 6.1 | 0.00 | 0.00 | 0.00 | 29 | 1011.0 |
| 20260503222520 | 60 | 323 | 4.3 | 5.2 | 0.00 | 0.00 | 0.00 | 28 | 1011.1 |
| 20260503222018 | 61 | 249 | 2.6 | 5.2 | 0.00 | 0.00 | 0.00 | 28 | 1010.9 |
| 20260503221516 | 60 | 331 | 3.5 | 4.3 | 0.00 | 0.00 | 0.00 | 29 | 1011.2 |
| 20260503221013 | 60 | 233 | 4.3 | 5.2 | 0.00 | 0.00 | 0.00 | 28 | 1011.1 |
| 20260503220509 | 60 | 278 | 3.5 | 7.0 | 0.00 | 0.00 | 0.00 | 27 | 1011.0 |
| 20260503220005 | 60 | 295 | 7.0 | 9.6 | 0.00 | 0.00 | 0.00 | 27 | 1010.9 |
| 20260503215503 | 60 | 285 | 1.7 | 5.2 | 0.00 | 0.00 | 0.00 | 27 | 1011.0 |
| 20260503215000 | 60 | 268 | 5.2 | 7.0 | 0.00 | 0.00 | 0.00 | 26 | 1011.0 |
| 20260503214458 | 60 | 267 | 2.6 | 6.1 | 0.00 | 0.00 | 0.00 | 26 | 1011.0 |
| 20260503213955 | 60 | 332 | 1.7 | 6.1 | 0.00 | 0.00 | 0.00 | 28 | 1010.8 |
| 20260503213453 | 60 | 240 | 4.3 | 5.2 | 0.00 | 0.00 | 0.00 | 27 | 1011.0 |
| 20260503212949 | 60 | 293 | 4.3 | 7.0 | 0.00 | 0.00 | 0.00 | 27 | 1010.9 |
| 20260503212446 | 60 | 285 | 1.7 | 5.2 | 0.00 | 0.00 | 0.00 | 26 | 1010.9 |
| 20260503211943 | 60 | 326 | 2.6 | 4.3 | 0.00 | 0.00 | 0.00 | 27 | 1010.8 |
| 20260503211441 | 60 | 254 | 4.3 | 8.7 | 0.00 | 0.00 | 0.00 | 26 | 1010.9 |
| 20260503210936 | 60 | 250 | 5.2 | 6.1 | 0.00 | 0.00 | 0.00 | 27 | 1010.8 |
| 20260503210433 | 60 | 295 | 5.2 | 10.4 | 0.00 | 0.00 | 0.00 | 25 | 1010.9 |
| 20260503205928 | 60 | 252 | 4.3 | 7.0 | 0.00 | 0.00 | 0.00 | 27 | 1010.8 |
| 20260503205425 | 60 | 347 | 1.7 | 7.0 | 0.00 | 0.00 | 0.00 | 27 | 1010.9 |
| 20260503204921 | 60 | 295 | 2.6 | 5.2 | 0.00 | 0.00 | 0.00 | 27 | 1010.9 |
| 20260503204419 | 60 | 248 | 7.0 | 7.8 | 0.00 | 0.00 | 0.00 | 27 | 1010.8 |
| 20260503203916 | 60 | 276 | 4.3 | 8.7 | 0.00 | 0.00 | 0.00 | 27 | 1011.1 |
| 20260503203413 | 59 | 329 | 2.6 | 3.5 | 0.00 | 0.00 | 0.00 | 28 | 1011.0 |
| 20260503202910 | 59 | 310 | 3.5 | 8.7 | 0.00 | 0.00 | 0.00 | 27 | 1011.1 |
| 20260503202408 | 59 | 321 | 4.3 | 10.4 | 0.00 | 0.00 | 0.00 | 27 | 1011.1 |
| 20260503201906 | 59 | 314 | 5.2 | 9.6 | 0.00 | 0.00 | 0.00 | 27 | 1011.0 |
| 20260503201403 | 59 | 276 | 5.2 | 7.8 | 0.00 | 0.00 | 0.00 | 28 | 1011.2 |
| 20260503200901 | 59 | 320 | 1.7 | 6.1 | 0.00 | 0.00 | 0.00 | 29 | 1011.2 |
| 20260503200356 | 59 | 269 | 1.7 | 3.5 | 0.00 | 0.00 | 0.00 | 30 | 1011.2 |
| 20260503195854 | 58 | 298 | 5.2 | 7.0 | 0.00 | 0.00 | 0.00 | 29 | 1011.5 |
| 20260503195350 | 59 | 305 | 6.1 | 8.7 | 0.00 | 0.00 | 0.00 | 29 | 1011.5 |
| 20260503194847 | 58 | 19 | 1.7 | 7.8 | 0.00 | 0.00 | 0.00 | 29 | 1011.5 |
| 20260503194343 | 59 | 314 | 4.3 | 8.7 | 0.00 | 0.00 | 0.00 | 29 | 1011.6 |
| 20260503193840 | 58 | 284 | 1.7 | 7.8 | 0.00 | 0.00 | 0.00 | 30 | 1011.8 |
| 20260503193335 | 58 | 267 | 5.2 | 7.8 | 0.00 | 0.00 | 0.00 | 28 | 1011.6 |
| 20260503192831 | 58 | 340 | 4.3 | 7.8 | 0.00 | 0.00 | 0.00 | 28 | 1011.6 |
| 20260503192327 | 58 | 344 | 3.5 | 8.7 | 0.00 | 0.00 | 0.00 | 27 | 1011.5 |
| 20260503191823 | 57 | 330 | 2.6 | 7.0 | 0.00 | 0.00 | 0.00 | 30 | 1011.7 |
| 20260503191321 | 57 | 299 | 5.2 | 7.8 | 0.00 | 0.00 | 0.00 | 29 | 1011.8 |
| 20260503190817 | 57 | 320 | 3.5 | 10.4 | 0.00 | 0.00 | 0.00 | 29 | 1011.9 |
| 20260503190315 | 58 | 293 | 4.3 | 6.1 | 0.00 | 0.00 | 0.00 | 30 | 1012.0 |
| 20260503185811 | 58 | 287 | 2.6 | 7.0 | 0.00 | 0.00 | 0.00 | 30 | 1012.0 |
| 20260503185308 | 58 | 282 | 5.2 | 12.2 | 0.00 | 0.00 | 0.00 | 29 | 1012.0 |
| 20260503184807 | 57 | 259 | 5.2 | 7.0 | 0.00 | 0.00 | 0.00 | 31 | 1012.0 |
| 20260503184304 | 56 | 1 | 1.7 | 7.8 | 0.00 | 0.00 | 0.00 | 31 | 1012.0 |
| 20260503183800 | 55 | 355 | 2.6 | 10.4 | 0.00 | 0.00 | 0.00 | 30 | 1012.2 |
| 20260503183258 | 56 | 326 | 1.7 | 4.3 | 0.00 | 0.00 | 0.00 | 30 | 1012.2 |
| 20260503182755 | 56 | 285 | 3.5 | 10.4 | 0.00 | 0.00 | 0.00 | 29 | 1012.3 |
| 20260503182253 | 56 | 324 | 1.7 | 7.0 | 0.00 | 0.00 | 0.00 | 30 | 1012.4 |
| 20260503181750 | 56 | 268 | 3.5 | 5.2 | 0.00 | 0.00 | 0.00 | 31 | 1012.3 |
| 20260503181247 | 56 | 319 | 5.2 | 8.7 | 0.00 | 0.00 | 0.00 | 30 | 1012.3 |
| 20260503180743 | 56 | 287 | 6.1 | 10.4 | 0.00 | 0.00 | 0.00 | 30 | 1012.1 |
| 20260503180242 | 55 | 333 | 6.1 | 7.8 | 0.00 | 0.00 | 0.00 | 30 | 1012.2 |
| 20260503175738 | 57 | 302 | 4.3 | 7.0 | 0.00 | 0.00 | 0.00 | 30 | 1012.3 |
| 20260503175236 | 57 | 283 | 3.5 | 7.8 | 0.00 | 0.00 | 0.00 | 30 | 1012.4 |
| 20260503174732 | 56 | 314 | 8.7 | 11.3 | 0.00 | 0.00 | 0.00 | 29 | 1012.4 |
| 20260503174231 | 55 | 324 | 2.6 | 7.8 | 0.00 | 0.00 | 0.00 | 32 | 1012.4 |
| 20260503173730 | 55 | 263 | 6.1 | 10.4 | 0.00 | 0.00 | 0.00 | 31 | 1012.6 |
| 20260503173226 | 55 | 258 | 4.3 | 10.4 | 0.00 | 0.00 | 0.00 | 31 | 1012.7 |
| 20260503172724 | 54 | 277 | 5.2 | 8.7 | 0.00 | 0.00 | 0.00 | 31 | 1012.6 |
| 20260503172221 | 55 | 298 | 5.2 | 13.0 | 0.00 | 0.00 | 0.00 | 30 | 1012.6 |
| 20260503171717 | 55 | 0 | 2.6 | 7.8 | 0.00 | 0.00 | 0.00 | 31 | 1012.6 |
| 20260503171214 | 55 | 328 | 3.5 | 7.8 | 0.00 | 0.00 | 0.00 | 31 | 1013.0 |
| 20260503170711 | 53 | 261 | 4.3 | 9.6 | 0.00 | 0.00 | 0.00 | 31 | 1012.7 |
| 20260503170208 | 54 | 266 | 5.2 | 5.2 | 0.00 | 0.00 | 0.00 | 33 | 1013.0 |